Weather History for Phoenix Deer Valley, AZ

Change the Weather History Date:

Wednesday, January 16, 2013

  Actual Average Record
Temperature  
Mean Temperature 44 °F -  
Max Temperature 59 °F 64 °F 78 °F (2003)
Min Temperature 30 °F 44 °F 30 °F (2013)
Degree Days  
Heating Degree Days 20    
Moisture  
Dew Point 11 °F    
Average Humidity 27    
Maximum Humidity 42    
Minimum Humidity 16    
Precipitation  
Precipitation 0.00 in - - ()
Sea Level Pressure  
Sea Level Pressure 30.30 in    
Wind  
Wind Speed 2 mph (NE)    
Max Wind Speed 9 mph    
Max Gust Speed -    
Visibility 10 miles    
Events      
Averages and records for this station are not official NWS values.
T = Trace of Precipitation, MM = Missing Value Source: NWS Daily Summary

Daily Weather History Graph

Daily Weather History Graph

Search for Another Location

Airport:

Trip Planner

Search our weather history database for the weather conditions in past years. The results will help you decide how hot, cold, wet, or windy it might be!

Date:

Astronomy

Jan. 16, 2013 Rise Set
Actual Time 7:32 AM MST 5:44 PM MST
Civil Twilight 7:05 AM MST 6:11 PM MST
Nautical Twilight 6:34 AM MST 6:41 PM MST
Astronomical Twilight 6:05 AM MST 7:11 PM MST
Moon 10:28 AM MST (1/16) 11:19 PM MST (1/16)
Length of Visible Light 11h 05m
Length of Day
10h 11m
Waxing Crescent, 29% of the Moon is Illuminated
Jan 16
Waxing Crescent
Jan 18
First Quarter
Jan 26
Full
Feb 3
Last Quarter
Feb 10
New

Hourly Weather History & Observations

Time (MST) Temp. Windchill Dew Point Humidity Pressure Visibility Wind Dir Wind Speed Gust Speed Precip Events Conditions
12:53 AM 33.1 °F - 5.0 °F 31% 30.38 in 10.0 mi Calm Calm - N/A   Clear
1:53 AM 33.1 °F - 5.0 °F 31% 30.37 in 10.0 mi Calm Calm - N/A   Clear
2:53 AM 35.1 °F - 5.0 °F 28% 30.37 in 10.0 mi Calm Calm - N/A   Clear
3:53 AM 35.1 °F - 5.0 °F 28% 30.35 in 10.0 mi Calm Calm - N/A   Clear
4:53 AM 33.1 °F 30.0 °F 8.1 °F 35% 30.35 in 10.0 mi ENE 3.5 mph - N/A   Clear
5:53 AM 30.9 °F - 8.1 °F 38% 30.35 in 10.0 mi Calm Calm - N/A   Clear
6:53 AM 30.9 °F 26.2 °F 9.0 °F 40% 30.35 in 10.0 mi East 4.6 mph - N/A   Clear
7:53 AM 30.9 °F 26.2 °F 10.0 °F 42% 30.36 in 10.0 mi East 4.6 mph - N/A   Clear
8:53 AM 39.0 °F 36.8 °F 10.9 °F 32% 30.37 in 10.0 mi ESE 3.5 mph - N/A   Clear
9:53 AM 45.0 °F 43.5 °F 10.0 °F 24% 30.38 in 10.0 mi WNW 3.5 mph - N/A   Clear
10:53 AM 48.0 °F - 9.0 °F 21% 30.36 in 10.0 mi Calm Calm - N/A   Clear
11:53 AM 51.1 °F - 10.9 °F 20% 30.32 in 10.0 mi SSW 4.6 mph - N/A   Clear
1:53 PM 55.0 °F - 12.0 °F 18% 30.26 in 10.0 mi South 4.6 mph - N/A   Clear
2:53 PM 55.9 °F - 12.9 °F 18% 30.23 in 10.0 mi Calm Calm - N/A   Clear
3:53 PM 59.0 °F - 12.9 °F 16% 30.21 in 10.0 mi Calm Calm - N/A   Clear
4:53 PM 57.9 °F - 14.0 °F 18% 30.21 in 10.0 mi West 3.5 mph - N/A   Clear
5:53 PM 55.0 °F - 14.0 °F 20% 30.23 in 10.0 mi WNW 3.5 mph - N/A   Clear
6:53 PM 51.1 °F - 15.1 °F 24% 30.24 in 10.0 mi NNW 5.8 mph - N/A   Clear
7:53 PM 50.0 °F - 15.1 °F 25% 30.25 in 10.0 mi North 5.8 mph - N/A   Clear
8:53 PM 48.9 °F - 16.0 °F 27% 30.24 in 10.0 mi NE 6.9 mph - N/A   Clear
9:53 PM 48.9 °F - 16.0 °F 27% 30.22 in 10.0 mi ENE 9.2 mph - N/A   Clear
10:53 PM 43.0 °F 41.3 °F 17.1 °F 35% 30.22 in 10.0 mi NNE 3.5 mph - N/A   Clear
11:53 PM 48.0 °F - 18.0 °F 30% 30.21 in 10.0 mi NNE 6.9 mph - N/A   Clear